Location: Bakov nad Jizerou
(50.4784°N, 14.9394°E)
Time: 09:26:18
(UTC+00:00)

Cosmos 1825 - Pass Details

Date: 16 June 2021
Orbit: 501 x 506 km, 82.5° (Epoch: 04 August)

Event Time Altitude Azimuth Distance (km) Brightness Sun altitude
Exits shadow 23:33:50 14° 129° (SE) 1,498 4.2 -15.8°
Maximum altitude 23:35:57 21° 88° (E) 1,179 4.1 -15.7°
Drops below altitude 10° 23:38:51 10° 38° (NE) 1,731 5.8 -15.7°
Sets 23:41:20 0° 23° (NNE) 2,621 7.4 -15.6°
